TimeMDT,TemperatureF,Dew PointF,Humidity,Sea Level PressureIn,VisibilityMPH,Wind Direction,Wind SpeedMPH,Gust SpeedMPH,PrecipitationIn,Events,Conditions,WindDirDegrees,DateUTC
12:15 AM,37.4,26.6,65,29.53,10.0,NW,23.0,28.8,N/A,,Mostly Cloudy,310,2013-04-09 06:15:00
12:35 AM,37.4,28.4,70,29.55,10.0,NW,27.6,34.5,N/A,,Mostly Cloudy,310,2013-04-09 06:35:00
12:55 AM,35.6,26.6,70,29.56,10.0,NW,25.3,31.1,N/A,,Mostly Cloudy,310,2013-04-09 06:55:00
1:15 AM,35.6,24.8,65,29.57,10.0,NNW,15.0,24.2,N/A,,Overcast,340,2013-04-09 07:15:00
1:35 AM,35.6,24.8,65,29.58,10.0,NW,20.7,26.5,N/A,,Mostly Cloudy,320,2013-04-09 07:35:00
1:55 AM,35.6,21.2,56,29.60,10.0,NNW,20.7,24.2,N/A,,Overcast,340,2013-04-09 07:55:00
2:15 AM,33.8,21.2,60,29.62,6.0,NNW,12.7,-,N/A,,Overcast,340,2013-04-09 08:15:00
2:35 AM,33.8,21.2,60,29.62,10.0,NW,15.0,-,N/A,,Overcast,320,2013-04-09 08:35:00
2:55 AM,33.8,26.6,75,29.63,10.0,East,5.8,-,N/A,,Overcast,80,2013-04-09 08:55:00
3:15 AM,33.8,26.6,75,29.64,10.0,Calm,Calm,-,N/A,,Overcast,0,2013-04-09 09:15:00
3:35 AM,33.8,26.6,75,29.65,10.0,NNW,10.4,-,N/A,,Overcast,340,2013-04-09 09:35:00
3:55 AM,33.8,19.4,56,29.67,10.0,NNW,12.7,16.1,N/A,,Overcast,340,2013-04-09 09:55:00
4:15 AM,32.0,19.4,60,29.68,10.0,NNW,15.0,-,N/A,,Overcast,340,2013-04-09 10:15:00
4:35 AM,32.0,19.4,60,29.69,10.0,NNW,16.1,-,N/A,,Overcast,340,2013-04-09 10:35:00
4:55 AM,30.2,21.2,69,29.71,10.0,NNW,16.1,20.7,N/A,,Overcast,340,2013-04-09 10:55:00
5:15 AM,28.4,19.4,69,29.72,6.0,NNW,15.0,25.3,N/A,,Overcast,330,2013-04-09 11:15:00
5:35 AM,28.4,21.2,74,29.73,5.0,NNW,9.2,-,N/A,,Overcast,330,2013-04-09 11:35:00
5:55 AM,28.4,19.4,69,29.74,4.0,North,10.4,-,N/A,,Overcast,350,2013-04-09 11:55:00
6:15 AM,28.4,21.2,74,29.76,2.5,NNW,13.8,-,N/A,,Overcast,340,2013-04-09 12:15:00
6:35 AM,28.4,21.2,74,29.77,7.0,North,13.8,-,N/A,,Mostly Cloudy,350,2013-04-09 12:35:00
6:55 AM,28.4,19.4,69,29.78,10.0,NNW,9.2,-,N/A,,Partly Cloudy,340,2013-04-09 12:55:00
6:56 AM,28.4,19.4,69,29.78,5.0,NW,13.8,19.6,N/A,Snow,Light Snow,320,2013-04-09 12:56:00
7:53 AM,28.4,26.6,93,29.81,4.0,North,9.2,-,N/A,Snow,Light Snow,360,2013-04-09 13:53:00
8:29 AM,28.4,24.8,86,29.83,1.0,East,4.6,-,N/A,Snow,Light Snow,80,2013-04-09 14:29:00
8:55 AM,28.4,24.8,86,29.84,6.0,North,4.6,-,N/A,Snow,Light Snow,10,2013-04-09 14:55:00
9:50 AM,30.2,19.4,64,29.87,10.0,NNW,8.1,-,N/A,,Mostly Cloudy,340,2013-04-09 15:50:00
10:53 AM,33.8,19.4,56,29.90,10.0,North,10.4,-,N/A,,Mostly Cloudy,350,2013-04-09 16:53:00
11:53 AM,32.0,21.2,64,29.92,10.0,NE,6.9,-,N/A,,Overcast,40,2013-04-09 17:53:00
12:56 PM,33.8,17.6,52,29.93,10.0,West,5.8,-,N/A,,Mostly Cloudy,280,2013-04-09 18:56:00
2:50 PM,37.4,19.4,48,29.94,15.0,Variable,5.8,-,N/A,,Mostly Cloudy,0,2013-04-09 20:50:00
3:50 PM,37.4,19.4,48,29.95,15.0,Variable,3.5,-,N/A,,Mostly Cloudy,0,2013-04-09 21:50:00
4:50 PM,39.2,17.6,42,29.96,15.0,NW,20.7,27.6,N/A,,Mostly Cloudy,310,2013-04-09 22:50:00
6:50 PM,39.2,17.6,42,30.00,15.0,Variable,5.8,-,N/A,,Scattered Clouds,0,2013-04-10 00:50:00
7:50 PM,37.4,15.8,41,30.01,15.0,NW,20.7,-,N/A,,Scattered Clouds,310,2013-04-10 01:50:00
8:50 PM,35.6,17.6,48,30.04,15.0,NW,18.4,-,N/A,,Scattered Clouds,310,2013-04-10 02:50:00
9:15 PM,35.6,17.6,48,30.05,10.0,NW,17.3,21.9,N/A,,Clear,320,2013-04-10 03:15:00
9:35 PM,35.6,17.6,48,30.07,10.0,NW,17.3,-,N/A,,Clear,320,2013-04-10 03:35:00
9:55 PM,35.6,19.4,52,30.08,10.0,NW,16.1,21.9,N/A,,Partly Cloudy,320,2013-04-10 03:55:00
10:15 PM,35.6,19.4,52,30.09,10.0,NW,19.6,-,N/A,,Partly Cloudy,310,2013-04-10 04:15:00
10:35 PM,35.6,17.6,48,30.09,10.0,NW,17.3,20.7,N/A,,Scattered Clouds,310,2013-04-10 04:35:00
10:55 PM,33.8,19.4,56,30.11,10.0,NW,23.0,-,N/A,,Mostly Cloudy,320,2013-04-10 04:55:00
11:15 PM,33.8,17.6,52,30.11,10.0,NW,19.6,23.0,N/A,,Mostly Cloudy,320,2013-04-10 05:15:00
11:35 PM,35.6,19.4,52,30.11,10.0,NW,17.3,21.9,N/A,,Mostly Cloudy,320,2013-04-10 05:35:00
11:55 PM,35.6,17.6,48,30.12,10.0,NW,18.4,-,N/A,,Mostly Cloudy,320,2013-04-10 05:55:00